This demonstration page uses our WeatherBlox Daily Observations layout. Learn more.

Left ArrowRight Arrow

39.51506, -84.39828

Hourly Observations for August 15, 2021

Temp ( °F °C ) Dew Point ( °F °C ) Humidity (%) Winds ( mph kmh ) Pressure ( in mb ) Visibility ( mi km ) Precip ( " mm )
12:15 am 00:15 Clear 69 20.6 61 16.1 76 76 ENE 10 17 30.21 1023 10 16 N/A
12:35 am 00:35 Clear 69 20.5 60 15.8 75 75 NE 7 11 30.21 1023 10 16 N/A
12:55 am 00:55 Clear 68 20.2 60 15.5 75 75 NE 7 11 30.22 1023 10 16 N/A
1:15 am 01:15 Cloudy 69 20.4 60 15.3 73 73 ENE 8 13 30.22 1023 10 16 N/A
1:35 am 01:35 Mostly Cloudy 68 20.2 60 15.3 74 74 NE 7 11 30.21 1023 10 16 N/A
1:55 am 01:55 Cloudy 69 20.4 59 15.2 72 72 NE 8 13 30.21 1023 10 16 N/A
2:15 am 02:15 Partly Cloudy 68 19.9 59 15.2 74 74 E 8 13 30.20 1023 10 16 N/A
2:35 am 02:35 Mostly Cloudy 68 19.9 59 15.1 74 74 ENE 8 13 30.19 1023 10 16 N/A
2:55 am 02:55 Cloudy 68 20.1 59 15.1 73 73 ENE 9 15 30.19 1022 10 16 N/A
3:15 am 03:15 Cloudy 68 20.1 59 15 73 73 NE 9 15 30.18 1022 10 16 N/A
3:35 am 03:35 Cloudy 68 19.9 59 15.1 74 74 ENE 9 15 30.18 1022 10 16 N/A
3:55 am 03:55 Cloudy 68 19.8 59 15 74 74 ENE 10 17 30.19 1022 10 16 N/A
4:15 am 04:15 Cloudy 68 19.8 58 14.7 73 73 ENE 10 17 30.18 1022 10 16 N/A
4:35 am 04:35 Cloudy 68 19.8 58 14.4 71 71 ENE 8 13 30.19 1022 10 16 N/A
4:55 am 04:55 Cloudy 67 19.7 57 14.1 70 70 ENE 9 15 30.18 1022 10 16 N/A
5:15 am 05:15 Cloudy 67 19.6 57 13.9 70 70 ENE 9 15 30.18 1022 10 16 N/A
5:35 am 05:35 Cloudy 67 19.6 56 13.6 68 68 ENE 9 15 30.19 1022 10 16 N/A
5:55 am 05:55 Cloudy 67 19.5 56 13.6 69 69 ENE 12 19 30.19 1022 10 16 N/A
6:15 am 06:15 Cloudy 67 19.4 56 13.5 69 69 NE 8 13 30.19 1022 10 16 N/A
6:35 am 06:35 Cloudy 67 19.3 56 13.5 69 69 NE 8 13 30.19 1022 10 16 N/A
6:55 am 06:55 Cloudy 66 19.1 56 13.4 70 70 NE 7 11 30.19 1022 10 16 N/A
7:15 am 07:15 Cloudy 66 19 56 13.5 71 71 NE 8 13 30.20 1023 10 16 N/A
7:35 am 07:35 Mostly Cloudy 67 19.2 56 13.5 70 70 ENE 7 11 30.20 1023 10 16 N/A
7:55 am 07:55 Cloudy 67 19.2 56 13.6 70 70 ENE 8 13 30.21 1023 10 16 N/A
8:15 am 08:15 Cloudy 67 19.5 57 13.8 70 70 E 7 11 30.21 1023 10 16 N/A
8:35 am 08:35 Cloudy 67 19.7 56 13.6 68 68 E 10 17 30.22 1023 10 16 N/A
8:55 am 08:55 Cloudy 67 19.6 56 13.6 68 68 E 8 13 30.22 1023 10 16 N/A
9:15 am 09:15 Cloudy 67 19.6 57 13.8 69 69 E 7 11 30.22 1023 10 16 N/A
9:35 am 09:35 Cloudy 68 20.1 58 14.2 69 69 ENE 10 17 30.21 1023 10 16 N/A
9:55 am 09:55 Cloudy 69 20.4 58 14.2 68 68 E 9 15 30.21 1023 10 16 N/A
10:15 am 10:15 Cloudy 68 20.2 57 14.1 68 68 E 9 15 30.21 1023 10 16 N/A
10:35 am 10:35 Cloudy 69 20.5 58 14.5 69 69 E 7 11 30.21 1023 10 16 N/A
10:55 am 10:55 Cloudy 69 20.7 58 14.5 68 68 E 8 13 30.21 1023 10 16 N/A
11:15 am 11:15 Cloudy 70 21.1 58 14.2 65 65 E 9 15 30.21 1023 10 16 N/A
11:35 am 11:35 Cloudy 70 21.2 58 14.4 65 65 ENE 8 13 30.21 1023 10 16 N/A
11:55 am 11:55 Cloudy 71 21.4 58 14.5 65 65 E 12 19 30.20 1023 10 16 N/A
12:15 pm 12:15 Cloudy 71 21.8 58 14.6 64 64 NE 13 20 30.20 1023 10 16 N/A
12:35 pm 12:35 Cloudy 71 21.8 58 14.4 63 63 ENE 10 17 30.19 1022 10 16 N/A
12:55 pm 12:55 Cloudy 72 22.2 58 14.7 63 63 ENE 10 17 30.19 1022 10 16 N/A
1:15 pm 13:15 Cloudy 73 22.9 58 14.7 60 60 E 8 13 30.19 1022 10 16 N/A
1:35 pm 13:35 Cloudy 73 22.8 59 15.2 62 62 E 10 17 30.18 1022 10 16 N/A
1:55 pm 13:55 Cloudy 74 23.2 58 14.7 59 59 E 8 13 30.18 1022 10 16 N/A
2:15 pm 14:15 Cloudy 75 23.7 59 14.9 58 58 E 12 19 30.17 1022 10 16 N/A
2:35 pm 14:35 Mostly Cloudy 75 23.9 60 15.3 59 59 ENE 10 17 30.16 1021 10 16 N/A
2:55 pm 14:55 Cloudy 74 23.4 59 15 59 59 E 12 19 30.16 1021 10 16 N/A
3:15 pm 15:15 Cloudy 74 23.5 59 15 59 59 E 10 17 30.15 1021 10 16 N/A
3:35 pm 15:35 Mostly Cloudy 76 24.4 61 15.9 59 59 E 10 17 30.13 1020 10 16 N/A
3:55 pm 15:55 Mostly Cloudy 78 25.5 61 16.3 57 57 E 13 20 30.12 1020 10 16 N/A
4:15 pm 16:15 Cloudy 78 25.4 61 16.2 57 57 E 12 19 30.12 1020 10 16 N/A
4:35 pm 16:35 Cloudy 78 25.3 62 16.4 58 58 E 10 17 30.12 1020 10 16 N/A
4:55 pm 16:55 Cloudy 78 25.6 62 16.4 57 57 E 9 15 30.11 1020 10 16 N/A
5:15 pm 17:15 Cloudy 77 25.1 62 16.9 60 60 E 8 13 30.10 1019 10 16 N/A
5:35 pm 17:35 Cloudy 76 24.6 63 17 63 63 E 10 17 30.10 1019 10 16 N/A
5:55 pm 17:55 Cloudy 76 24.5 63 17.3 64 64 E 8 13 30.09 1019 10 16 N/A
6:15 pm 18:15 Cloudy 76 24.4 63 17.4 65 65 E 10 17 30.09 1019 10 16 N/A
6:35 pm 18:35 Cloudy 75 24.1 64 17.5 67 67 E 8 13 30.09 1019 10 16 N/A
6:55 pm 18:55 Cloudy 75 23.8 63 17.3 67 67 E 6 9 30.09 1019 10 16 N/A
7:15 pm 19:15 Cloudy 75 23.8 63 17.3 67 67 E 6 9 30.09 1019 10 16 N/A
7:35 pm 19:35 Cloudy 74 23.5 63 17 67 67 E 10 17 30.09 1019 10 16 N/A
7:55 pm 19:55 Cloudy 74 23.1 62 16.6 67 67 E 12 19 30.09 1019 10 16 N/A
8:15 pm 20:15 Cloudy 73 22.8 60 15.7 64 64 E 9 15 30.09 1019 10 16 N/A
8:35 pm 20:35 Cloudy 73 22.6 60 15.5 64 64 E 8 13 30.09 1019 10 16 N/A
8:55 pm 20:55 Mostly Cloudy 72 22.4 60 15.3 64 64 ENE 9 15 30.08 1019 10 16 N/A
9:15 pm 21:15 Cloudy 72 22.4 60 15.5 65 65 ENE 6 9 30.09 1019 10 16 N/A
9:35 pm 21:35 Cloudy 72 22.1 61 15.9 68 68 E 5 7 30.10 1019 7 11 N/A
9:55 pm 21:55 Cloudy 72 22.1 61 16.1 69 69 E 5 7 30.11 1020 10 16 N/A
10:15 pm 22:15 Cloudy 72 22 61 16.2 70 70 E 5 7 30.11 1020 10 16 N/A
10:35 pm 22:35 Cloudy 72 22 61 16.3 70 70 ENE 5 7 30.11 1020 10 16 N/A
10:55 pm 22:55 Cloudy 72 22.1 61 16.3 70 70 NE 6 9 30.11 1020 10 16 N/A
11:15 pm 23:15 Cloudy with Light Rain 71 21.7 62 16.9 74 74 ENE 7 11 30.11 1020 10 16 N/A
11:35 pm 23:35 Cloudy with Light Rain 69 20.4 65 18.4 88 88 NNE 6 9 30.11 1020 10 16 N/A
11:55 pm 23:55 Cloudy with Light Rain 68 20.2 65 18.4 89 89 NNE 5 7 30.10 1019 10 16 N/A

Powered by AerisWeather